Location: Libas
(9.8833°N, 125.9833°E)
Time: 21:35:34
(UTC+00:00)

Cosmos 1331 Rocket - Pass Details

Date: 27 October 2020
Orbit: 749 x 778 km, 74.0° (Epoch: 26 November)

Event Time Altitude Azimuth Distance (km) Brightness Sun altitude
Exits shadow 19:56:16 23° 346° (NNW) 1,600 5.4 -22.4°
Maximum altitude 19:59:39 88° 259° (W) 771 3.9 -21.6°
Drops below altitude 10° 20:04:54 10° 168° (SSE) 2,311 6.7 -20.3°
Sets 20:07:17 0° 168° (SSE) 3,241 7.5 -19.7°
